Location: Galliano
(29.4422°N, 90.2993°W)
Time: 19:07:25
(UTC-06:00)

Envisat - Visible Passes

Search period start: 21 February 2018 00:00
Search period end: 03 March 2018 00:00
Orbit: 764 x 766 km, 98.2° (Epoch: 21 February)

Date Brightness Start Highest point End Pass type
(mag) Time Alt. Az. Time Alt. Az. Time Alt. Az.
21 Feb 2.8 19:30:56 10° SSE 19:35:58 73° ENE 19:41:03 10° N visible
22 Feb 3.8 18:55:07 10° SE 18:59:26 29° ENE 19:03:46 10° NNE visible
22 Feb 5.1 20:34:22 10° SSW 20:38:21 23° W 20:42:22 10° NW visible
23 Feb 4.7 18:21:11 10° E 18:23:05 12° ENE 18:24:59 10° NE visible
23 Feb 3.5 19:56:33 10° S 20:01:32 59° W 20:06:32 10° NNW visible
24 Feb 3.0 19:19:57 10° SSE 19:24:52 55° ENE 19:29:50 10° N visible
24 Feb 5.9 21:02:17 10° WSW 21:04:06 12° W 21:05:57 10° WNW visible
25 Feb 4.1 18:44:30 10° ESE 18:48:23 23° ENE 18:52:17 10° NNE visible
25 Feb 4.7 20:22:44 10° SSW 20:27:10 30° W 20:31:37 10° NW visible
26 Feb 3.0 19:45:20 10° S 19:50:24 78° WSW 19:55:29 10° NNW visible
27 Feb 3.3 19:09:03 10° SE 19:13:47 42° ENE 19:18:33 10° N visible
27 Feb 5.6 20:49:51 10° SW 20:52:53 16° W 20:55:57 10° WNW visible
28 Feb 4.4 18:34:04 10° ESE 18:37:22 18° ENE 18:40:39 10° NNE visible
28 Feb 4.2 20:11:17 10° SSW 20:16:00 40° W 20:20:45 10° NNW visible
01 Mar 2.8 19:34:13 10° SSE 19:39:16 81° ENE 19:44:22 10° N visible
02 Mar 3.6 18:58:15 10° SE 19:02:43 32° ENE 19:07:12 10° N visible
02 Mar 5.3 20:37:55 10° SW 20:41:42 21° W 20:45:28 10° NW visible
